ARG1431 SAZN-SAVC

Flight info

Callsign ARG1431
Flight time 1h 13m
Altitude 35000
Route ILTOS3C ILTOS DCT SIMOT UT105 PUBLO PUBLO2U
Aircraft B738/M-SDE2E3FGHIRWXY/LB1

Departure

Time 2026-04-11 19:27
Airport Presidente Perón International Airport (SAZN)

Arrival

Time 2026-04-11 20:41
Airport General Enrique Mosconi International Airport (SAVC)
Time Latitude Longitude Altitude Speed Heading
2026-04-11 19:00 -38.95150 -68.14066 895 ft 0 kts 179°
2026-04-11 19:20 -38.95141 -68.14066 895 ft 2 kts 179°
2026-04-11 19:21 -38.95130 -68.14066 895 ft 1 kts 179°
2026-04-11 19:21 -38.95116 -68.14069 895 ft 2 kts 152°
2026-04-11 19:21 -38.95105 -68.14081 895 ft 2 kts 128°
2026-04-11 19:21 -38.95098 -68.14098 895 ft 2 kts 102°
2026-04-11 19:22 -38.95097 -68.14107 895 ft 1 kts 88°
2026-04-11 19:22 -38.95097 -68.14113 895 ft 0 kts 91°
2026-04-11 19:24 -38.95097 -68.14111 895 ft 1 kts 91°
2026-04-11 19:24 -38.95097 -68.14071 895 ft 8 kts 90°
2026-04-11 19:24 -38.95088 -68.13982 895 ft 9 kts 46°
2026-04-11 19:25 -38.95036 -68.14001 895 ft 10 kts 316°
2026-04-11 19:25 -38.94966 -68.14090 895 ft 13 kts 314°
2026-04-11 19:25 -38.94910 -68.14159 895 ft 7 kts 297°
2026-04-11 19:25 -38.94908 -68.14175 895 ft 0 kts 271°
2026-04-11 19:26 -38.94908 -68.14201 895 ft 10 kts 270°
2026-04-11 19:26 -38.94907 -68.14625 895 ft 87 kts 269°
2026-04-11 19:26 -38.94905 -68.15714 899 ft 154 kts 270°
2026-04-11 19:27 -38.94881 -68.17159 1447 ft 166 kts 270°
2026-04-11 19:27 -38.94834 -68.18638 2173 ft 169 kts 271°
2026-04-11 19:27 -38.94786 -68.20206 2626 ft 183 kts 273°
2026-04-11 19:27 -38.94679 -68.21890 3090 ft 197 kts 272°
2026-04-11 19:28 -38.94684 -68.23646 3790 ft 198 kts 269°
2026-04-11 19:28 -38.94697 -68.25440 4336 ft 206 kts 268°
2026-04-11 19:28 -38.94739 -68.27184 5290 ft 192 kts 265°
2026-04-11 19:28 -38.95158 -68.28860 5638 ft 211 kts 233°
2026-04-11 19:29 -38.96443 -68.29929 5840 ft 241 kts 192°
2026-04-11 19:29 -38.98127 -68.29713 6430 ft 254 kts 160°
2026-04-11 19:29 -38.99781 -68.28828 7070 ft 267 kts 160°
2026-04-11 19:29 -39.01622 -68.28004 7551 ft 287 kts 163°
2026-04-11 19:30 -39.03513 -68.27245 8392 ft 291 kts 163°
2026-04-11 19:30 -39.05465 -68.26472 9122 ft 300 kts 163°
2026-04-11 19:30 -39.07439 -68.25694 10001 ft 301 kts 163°
2026-04-11 19:30 -39.09501 -68.24889 10516 ft 318 kts 163°
2026-04-11 19:31 -39.11693 -68.24036 10771 ft 340 kts 163°
2026-04-11 19:31 -39.13988 -68.23143 11308 ft 352 kts 163°
2026-04-11 19:31 -39.16389 -68.22209 11968 ft 359 kts 163°
2026-04-11 19:31 -39.18787 -68.21275 12615 ft 365 kts 163°
2026-04-11 19:32 -39.21205 -68.20332 13295 ft 370 kts 163°
2026-04-11 19:32 -39.23699 -68.19360 13972 ft 374 kts 164°
2026-04-11 19:32 -39.26191 -68.18388 14625 ft 378 kts 164°
2026-04-11 19:32 -39.28709 -68.17406 15268 ft 382 kts 164°
2026-04-11 19:33 -39.31280 -68.16403 15907 ft 386 kts 165°
2026-04-11 19:33 -39.33835 -68.15406 16521 ft 390 kts 165°
2026-04-11 19:33 -39.36425 -68.14394 17132 ft 393 kts 165°
2026-04-11 19:33 -39.39059 -68.13365 17731 ft 396 kts 166°
2026-04-11 19:34 -39.41696 -68.12344 18320 ft 399 kts 167°
2026-04-11 19:34 -39.44355 -68.11483 18896 ft 400 kts 172°
2026-04-11 19:34 -39.47114 -68.10992 19482 ft 399 kts 178°
2026-04-11 19:34 -39.49886 -68.10707 20081 ft 400 kts 179°
2026-04-11 19:35 -39.52658 -68.10429 20633 ft 403 kts 179°
2026-04-11 19:35 -39.55443 -68.10147 21195 ft 404 kts 180°
2026-04-11 19:35 -39.58234 -68.09870 21729 ft 405 kts 180°
2026-04-11 19:35 -39.61025 -68.09597 22260 ft 406 kts 180°
2026-04-11 19:36 -39.63861 -68.09322 22779 ft 407 kts 180°
2026-04-11 19:36 -39.66676 -68.09049 23287 ft 408 kts 180°
2026-04-11 19:36 -39.69465 -68.08781 23773 ft 409 kts 180°
2026-04-11 19:37 -39.75145 -68.08234 24734 ft 410 kts 181°
2026-04-11 19:37 -39.77974 -68.07961 25197 ft 410 kts 181°
2026-04-11 19:37 -39.80803 -68.07690 25644 ft 411 kts 181°
2026-04-11 19:37 -39.83689 -68.07421 26083 ft 411 kts 181°
2026-04-11 19:38 -39.86500 -68.07167 26501 ft 412 kts 181°
2026-04-11 19:38 -39.89348 -68.06909 26906 ft 412 kts 181°
2026-04-11 19:38 -39.92199 -68.06651 27302 ft 413 kts 181°
2026-04-11 19:38 -39.95055 -68.06391 27687 ft 413 kts 181°
2026-04-11 19:39 -39.97913 -68.06132 28057 ft 413 kts 180°
2026-04-11 19:39 -40.00800 -68.05871 28422 ft 414 kts 180°
2026-04-11 19:39 -40.03639 -68.05614 28765 ft 414 kts 180°
2026-04-11 19:39 -40.06502 -68.05355 29100 ft 414 kts 180°
2026-04-11 19:40 -40.09387 -68.05095 29426 ft 415 kts 180°
2026-04-11 19:40 -40.12244 -68.04837 29761 ft 415 kts 180°
2026-04-11 19:40 -40.15146 -68.04575 30155 ft 414 kts 180°
2026-04-11 19:40 -40.17980 -68.04319 30550 ft 412 kts 180°
2026-04-11 19:41 -40.20832 -68.04062 30954 ft 410 kts 179°
2026-04-11 19:41 -40.23653 -68.03809 31359 ft 407 kts 179°
2026-04-11 19:41 -40.26463 -68.03556 31762 ft 405 kts 179°
2026-04-11 19:41 -40.29258 -68.03307 32161 ft 402 kts 179°
2026-04-11 19:42 -40.32046 -68.03058 32556 ft 399 kts 179°
2026-04-11 19:42 -40.34803 -68.02812 32937 ft 397 kts 178°
2026-04-11 19:42 -40.37536 -68.02570 33305 ft 394 kts 178°
2026-04-11 19:42 -40.40238 -68.02324 33662 ft 392 kts 178°
2026-04-11 19:43 -40.42966 -68.02042 34010 ft 390 kts 177°
2026-04-11 19:43 -40.45653 -68.01757 34313 ft 388 kts 177°
2026-04-11 19:43 -40.48318 -68.01476 34590 ft 387 kts 177°
2026-04-11 19:43 -40.51018 -68.01191 34815 ft 388 kts 177°
2026-04-11 19:44 -40.56358 -68.00626 34828 ft 383 kts 177°
2026-04-11 19:44 -40.61597 -68.00071 34831 ft 378 kts 177°
2026-04-11 19:45 -40.66841 -67.99514 34832 ft 380 kts 177°
2026-04-11 19:45 -40.72084 -67.98940 34831 ft 381 kts 176°
2026-04-11 19:46 -40.77354 -67.98281 34831 ft 380 kts 176°
2026-04-11 19:46 -40.82591 -67.97632 34831 ft 380 kts 176°
2026-04-11 19:47 -40.87831 -67.96982 34831 ft 380 kts 176°
2026-04-11 19:47 -40.93092 -67.96330 34831 ft 380 kts 176°
2026-04-11 19:48 -40.98338 -67.95678 34830 ft 381 kts 176°
2026-04-11 19:48 -41.03657 -67.95020 34832 ft 389 kts 176°
2026-04-11 19:49 -41.09079 -67.94351 34831 ft 397 kts 176°
2026-04-11 19:49 -41.14594 -67.93697 34832 ft 403 kts 176°
2026-04-11 19:50 -41.20175 -67.93050 34829 ft 401 kts 176°
2026-04-11 19:50 -41.25674 -67.92406 34831 ft 399 kts 176°
2026-04-11 19:51 -41.31214 -67.91756 34831 ft 400 kts 176°
2026-04-11 19:51 -41.36725 -67.91108 34831 ft 400 kts 176°
2026-04-11 19:52 -41.38955 -67.90846 34831 ft 400 kts 176°
2026-04-11 19:52 -41.44183 -67.90286 34836 ft 413 kts 176°
2026-04-11 19:53 -41.49957 -67.89595 34837 ft 425 kts 175°
2026-04-11 19:53 -41.55930 -67.88876 34832 ft 437 kts 175°
2026-04-11 19:54 -41.62032 -67.88145 34831 ft 447 kts 175°
2026-04-11 19:54 -41.68290 -67.87395 34829 ft 452 kts 175°
2026-04-11 19:55 -41.74546 -67.86646 34829 ft 450 kts 175°
2026-04-11 19:55 -41.80738 -67.85904 34830 ft 449 kts 175°
2026-04-11 19:56 -41.86972 -67.85156 34831 ft 449 kts 175°
2026-04-11 19:56 -41.93182 -67.84409 34831 ft 450 kts 175°
2026-04-11 19:57 -41.99392 -67.83661 34830 ft 450 kts 175°
2026-04-11 19:57 -42.05637 -67.82908 34831 ft 450 kts 175°
2026-04-11 19:58 -42.11859 -67.82156 34831 ft 450 kts 175°
2026-04-11 19:58 -42.18048 -67.81406 34830 ft 450 kts 175°
2026-04-11 19:59 -42.24283 -67.80650 34831 ft 450 kts 175°
2026-04-11 19:59 -42.30490 -67.79894 34831 ft 450 kts 175°
2026-04-11 20:00 -42.36723 -67.79135 34830 ft 450 kts 175°
2026-04-11 20:00 -42.42945 -67.78402 34831 ft 450 kts 175°
2026-04-11 20:01 -42.49181 -67.77678 34831 ft 450 kts 175°
2026-04-11 20:01 -42.55401 -67.76952 34831 ft 450 kts 175°
2026-04-11 20:02 -42.61608 -67.76225 34830 ft 450 kts 175°
2026-04-11 20:02 -42.67810 -67.75498 34831 ft 450 kts 175°
2026-04-11 20:03 -42.74049 -67.74765 34831 ft 450 kts 175°
2026-04-11 20:03 -42.80231 -67.74036 34831 ft 450 kts 175°
2026-04-11 20:04 -42.86439 -67.73304 34831 ft 450 kts 175°
2026-04-11 20:04 -42.92638 -67.72571 34831 ft 450 kts 175°
2026-04-11 20:05 -42.98856 -67.71834 34831 ft 450 kts 175°
2026-04-11 20:05 -43.05079 -67.71095 34831 ft 450 kts 175°
2026-04-11 20:06 -43.11276 -67.70358 34831 ft 450 kts 175°
2026-04-11 20:06 -43.17475 -67.69617 34831 ft 450 kts 175°
2026-04-11 20:07 -43.23700 -67.68874 34831 ft 450 kts 175°
2026-04-11 20:07 -43.29898 -67.68130 34831 ft 450 kts 175°
2026-04-11 20:08 -43.36095 -67.67387 34831 ft 450 kts 175°
2026-04-11 20:08 -43.42317 -67.66638 34831 ft 450 kts 175°
2026-04-11 20:09 -43.48516 -67.65891 34831 ft 450 kts 175°
2026-04-11 20:09 -43.54730 -67.65140 34831 ft 450 kts 175°
2026-04-11 20:10 -43.58886 -67.64636 34831 ft 450 kts 175°
2026-04-11 20:11 -43.73368 -67.62878 34831 ft 450 kts 175°
2026-04-11 20:11 -43.79572 -67.62048 34738 ft 449 kts 172°
2026-04-11 20:12 -43.82569 -67.61249 34478 ft 439 kts 168°
2026-04-11 20:12 -43.85510 -67.60268 34125 ft 434 kts 167°
2026-04-11 20:12 -43.88426 -67.59293 33630 ft 428 kts 167°
2026-04-11 20:12 -43.91263 -67.58348 33120 ft 422 kts 167°
2026-04-11 20:13 -43.94094 -67.57403 32606 ft 417 kts 168°
2026-04-11 20:13 -43.96881 -67.56470 32097 ft 412 kts 168°
2026-04-11 20:13 -43.99638 -67.55544 31592 ft 408 kts 168°
2026-04-11 20:13 -44.02368 -67.54625 31091 ft 403 kts 168°
2026-04-11 20:14 -44.05051 -67.53721 30597 ft 399 kts 168°
2026-04-11 20:14 -44.07741 -67.52814 30100 ft 394 kts 168°
2026-04-11 20:14 -44.10390 -67.51918 29611 ft 390 kts 168°
2026-04-11 20:14 -44.13009 -67.51033 29125 ft 386 kts 168°
2026-04-11 20:15 -44.15593 -67.50158 28646 ft 383 kts 168°
2026-04-11 20:15 -44.18151 -67.49290 28170 ft 379 kts 168°
2026-04-11 20:15 -44.20719 -67.48420 27692 ft 375 kts 168°
2026-04-11 20:15 -44.23212 -67.47574 27226 ft 372 kts 168°
2026-04-11 20:16 -44.25734 -67.46717 26755 ft 369 kts 168°
2026-04-11 20:16 -44.28223 -67.45870 26289 ft 366 kts 168°
2026-04-11 20:16 -44.30678 -67.45035 25830 ft 362 kts 168°
2026-04-11 20:16 -44.33129 -67.44200 25370 ft 359 kts 169°
2026-04-11 20:17 -44.35528 -67.43382 24921 ft 356 kts 169°
2026-04-11 20:17 -44.37930 -67.42563 24470 ft 354 kts 169°
2026-04-11 20:17 -44.40282 -67.41760 24027 ft 351 kts 169°
2026-04-11 20:17 -44.42622 -67.40961 23586 ft 348 kts 169°
2026-04-11 20:18 -44.44954 -67.40163 23147 ft 346 kts 169°
2026-04-11 20:18 -44.47289 -67.39365 22706 ft 343 kts 169°
2026-04-11 20:18 -44.49623 -67.38566 22270 ft 346 kts 169°
2026-04-11 20:18 -44.51971 -67.37762 21823 ft 347 kts 169°
2026-04-11 20:19 -44.54293 -67.36965 21383 ft 344 kts 169°
2026-04-11 20:19 -44.56605 -67.36171 20946 ft 341 kts 169°
2026-04-11 20:19 -44.58910 -67.35379 20509 ft 339 kts 169°
2026-04-11 20:19 -44.61191 -67.34595 20077 ft 337 kts 168°
2026-04-11 20:20 -44.63435 -67.33823 19651 ft 334 kts 168°
2026-04-11 20:20 -44.65685 -67.33048 19224 ft 332 kts 168°
2026-04-11 20:20 -44.67927 -67.32275 18798 ft 330 kts 168°
2026-04-11 20:20 -44.70138 -67.31512 18377 ft 328 kts 168°
2026-04-11 20:21 -44.72350 -67.30750 17960 ft 332 kts 168°
2026-04-11 20:21 -44.74581 -67.29980 17531 ft 331 kts 168°
2026-04-11 20:21 -44.76811 -67.29208 17106 ft 329 kts 168°
2026-04-11 20:21 -44.79022 -67.28442 16685 ft 327 kts 168°
2026-04-11 20:22 -44.81200 -67.27687 16269 ft 325 kts 168°
2026-04-11 20:22 -44.83391 -67.26927 15850 ft 323 kts 168°
2026-04-11 20:22 -44.85537 -67.26183 15440 ft 321 kts 168°
2026-04-11 20:22 -44.87701 -67.25430 15026 ft 319 kts 167°
2026-04-11 20:23 -44.89846 -67.24685 14615 ft 317 kts 167°
2026-04-11 20:23 -44.91952 -67.23953 14211 ft 315 kts 167°
2026-04-11 20:23 -44.94079 -67.23212 13803 ft 314 kts 167°
2026-04-11 20:23 -44.96168 -67.22484 13401 ft 312 kts 167°
2026-04-11 20:24 -44.98263 -67.21753 12998 ft 310 kts 167°
2026-04-11 20:24 -45.00353 -67.21024 12596 ft 309 kts 167°
2026-04-11 20:24 -45.02430 -67.20298 12196 ft 308 kts 167°
2026-04-11 20:24 -45.04504 -67.19572 11860 ft 304 kts 167°
2026-04-11 20:25 -45.06555 -67.18855 11835 ft 310 kts 167°
2026-04-11 20:25 -45.08662 -67.18118 11832 ft 312 kts 167°
2026-04-11 20:25 -45.10770 -67.17379 11828 ft 312 kts 167°
2026-04-11 20:25 -45.12901 -67.16632 11604 ft 314 kts 167°
2026-04-11 20:26 -45.14993 -67.15897 11351 ft 310 kts 167°
2026-04-11 20:26 -45.17084 -67.15163 11097 ft 307 kts 167°
2026-04-11 20:26 -45.19136 -67.14442 10849 ft 305 kts 167°
2026-04-11 20:26 -45.21201 -67.13716 10598 ft 305 kts 167°
2026-04-11 20:27 -45.23245 -67.12996 10349 ft 303 kts 167°
2026-04-11 20:27 -45.25287 -67.12277 10098 ft 301 kts 167°
2026-04-11 20:27 -45.27345 -67.11552 9843 ft 300 kts 167°
2026-04-11 20:27 -45.29347 -67.10849 9592 ft 295 kts 167°
2026-04-11 20:28 -45.31316 -67.10151 9340 ft 290 kts 167°
2026-04-11 20:28 -45.33248 -67.09465 9092 ft 287 kts 167°
2026-04-11 20:28 -45.35192 -67.08775 8842 ft 286 kts 168°
2026-04-11 20:28 -45.37106 -67.08092 8592 ft 284 kts 167°
2026-04-11 20:29 -45.39017 -67.07425 8344 ft 284 kts 167°
2026-04-11 20:29 -45.40939 -67.06746 8094 ft 284 kts 167°
2026-04-11 20:29 -45.42828 -67.06072 7846 ft 282 kts 168°
2026-04-11 20:29 -45.44680 -67.05415 7600 ft 280 kts 167°
2026-04-11 20:30 -45.45772 -67.05029 7454 ft 280 kts 170°
2026-04-11 20:30 -45.47627 -67.04335 7180 ft 278 kts 169°
2026-04-11 20:30 -45.49513 -67.03680 6869 ft 274 kts 171°
2026-04-11 20:30 -45.51335 -67.03049 6511 ft 265 kts 170°
2026-04-11 20:31 -45.53115 -67.02753 6172 ft 249 kts 189°
2026-04-11 20:31 -45.54691 -67.03396 5880 ft 230 kts 212°
2026-04-11 20:31 -45.56069 -67.04477 5597 ft 221 kts 214°
2026-04-11 20:31 -45.57396 -67.05492 5313 ft 211 kts 214°
2026-04-11 20:32 -45.58642 -67.06448 5063 ft 196 kts 214°
2026-04-11 20:32 -45.59804 -67.07340 4808 ft 182 kts 214°
2026-04-11 20:32 -45.60879 -67.08170 4600 ft 172 kts 215°
2026-04-11 20:32 -45.61946 -67.08993 4486 ft 174 kts 215°
2026-04-11 20:33 -45.63017 -67.09820 4429 ft 175 kts 215°
2026-04-11 20:33 -45.64086 -67.10642 4363 ft 174 kts 215°
2026-04-11 20:33 -45.65152 -67.11465 4305 ft 172 kts 216°
2026-04-11 20:33 -45.66215 -67.12291 4186 ft 175 kts 216°
2026-04-11 20:34 -45.67281 -67.13105 3964 ft 166 kts 215°
2026-04-11 20:34 -45.68253 -67.13850 3813 ft 156 kts 215°
2026-04-11 20:34 -45.69240 -67.14616 3807 ft 164 kts 217°
2026-04-11 20:34 -45.70246 -67.15402 3726 ft 162 kts 215°
2026-04-11 20:35 -45.71244 -67.16170 3562 ft 166 kts 216°
2026-04-11 20:35 -45.72253 -67.16952 3188 ft 167 kts 216°
2026-04-11 20:35 -45.73268 -67.17735 2797 ft 163 kts 216°
2026-04-11 20:35 -45.74252 -67.18502 2425 ft 160 kts 218°
2026-04-11 20:36 -45.74991 -67.19588 2043 ft 143 kts 255°
2026-04-11 20:36 -45.75182 -67.20933 2030 ft 139 kts 264°
2026-04-11 20:36 -45.75388 -67.22338 2037 ft 143 kts 264°
2026-04-11 20:36 -45.75585 -67.23700 1961 ft 137 kts 267°
2026-04-11 20:37 -45.75737 -67.25041 2003 ft 137 kts 268°
2026-04-11 20:37 -45.75912 -67.26392 1994 ft 140 kts 265°
2026-04-11 20:37 -45.76077 -67.27787 1989 ft 142 kts 265°
2026-04-11 20:37 -45.76254 -67.29174 1988 ft 144 kts 264°
2026-04-11 20:38 -45.76435 -67.30605 1991 ft 147 kts 266°
2026-04-11 20:38 -45.76613 -67.31998 1969 ft 140 kts 265°
2026-04-11 20:38 -45.76798 -67.33401 2005 ft 142 kts 265°
2026-04-11 20:38 -45.76985 -67.34794 1978 ft 142 kts 266°
2026-04-11 20:39 -45.77166 -67.36178 1965 ft 141 kts 266°
2026-04-11 20:39 -45.77354 -67.37573 1803 ft 146 kts 266°
2026-04-11 20:39 -45.77539 -67.38971 1426 ft 148 kts 264°
2026-04-11 20:39 -45.77700 -67.40404 897 ft 141 kts 265°
2026-04-11 20:40 -45.77894 -67.41726 544 ft 140 kts 264°
2026-04-11 20:40 -45.78096 -67.43109 271 ft 142 kts 265°
2026-04-11 20:40 -45.78260 -67.44492 180 ft 139 kts 265°
2026-04-11 20:40 -45.78418 -67.45753 136 ft 102 kts 267°
2026-04-11 20:41 -45.78499 -67.46285 149 ft 17 kts 258°
2026-04-11 20:41 -45.78503 -67.46308 150 ft 1 kts 256°
2026-04-11 20:41 -45.78512 -67.46371 152 ft 10 kts 258°
2026-04-11 20:41 -45.78531 -67.46503 158 ft 17 kts 259°
2026-04-11 20:42 -45.78556 -67.46709 162 ft 24 kts 262°
2026-04-11 20:42 -45.78635 -67.46806 168 ft 12 kts 177°
2026-04-11 20:42 -45.78699 -67.46802 170 ft 6 kts 182°
2026-04-11 20:42 -45.78736 -67.46805 171 ft 4 kts 184°
2026-04-11 20:43 -45.78777 -67.46810 172 ft 7 kts 185°
2026-04-11 20:43 -45.78842 -67.46816 173 ft 10 kts 184°
2026-04-11 20:43 -45.78887 -67.46838 174 ft 3 kts 206°
2026-04-11 20:43 -45.78896 -67.46845 175 ft 0 kts 208°
2026-04-11 20:44 -45.78898 -67.46847 175 ft 0 kts 211°
2026-04-11 20:44 -45.78896 -67.46845 175 ft 0 kts 210°
2026-04-11 20:44 -45.78894 -67.46844 175 ft 0 kts 210°
2026-04-11 20:45 -45.78892 -67.46842 175 ft 0 kts 210°
2026-04-11 20:45 -45.78890 -67.46841 175 ft 0 kts 209°
2026-04-11 20:45 -45.78888 -67.46838 174 ft 0 kts 209°
2026-04-11 20:45 -45.78886 -67.46837 174 ft 0 kts 208°
2026-04-11 20:46 -45.78884 -67.46835 174 ft 0 kts 208°